COSMOS 2251 DEB, 34050

Orbit data source: Space-Track

COSMOS 2251 DEB, 34050 is space debris in LEO originally from a launch on Wed, 16 Jun 1993 UTC launched from the Plesetsk Missile And Space Complex (PKMTR). The debris from Iridium 33, an American commercial communications satellite, has been tracked extensively since its accidental collision with the defunct Russian satellite Cosmos 2251 in 2009. This event, occurring at high speed in low Earth orbit (LEO), generated thousands of pieces of space debris, significantly increasing the risk of further collisions. The Iridium 33 debris cloud has impacted space traffic management and orbital debris mitigation strategies, making it a subject of ongoing study in space situational awareness.

Loading next visibility...
Identifier
34050, 1993-036JM
Orbit
LEO
Country
Flag of CISCIS
Related business
Manufacturer
Unknown
Mission
Spacecraft
Bus & Motor
Unknown
Mass
Unknown
Launch date (UTC)
1993-06-16 (33 years ago)
Launch vehicle
Unknown
Launch site
Plesetsk Missile And Space Complex (PKMTR)
Object type
Payload
Rocket body
Debris
Shape & HBR
Unknown shape, 0.1 m
Radar Cross Section
Medium (>0.1 m² and <1 m²)

Expand to show TLE details & history
Last TLE update: 3 days ago

TLE from 3 days ago
0 COSMOS 2251 DEB
1 34050U 93036JM  26171.41505521  .00000951  00000-0  57436-3 0  9996
2 34050  74.0872  44.5240 0217946  63.7494 116.1903 13.96670608880792
Epoch: 2026-06-20T09:57Z
TLE epoch observation values (Epoch: 2026-06-20T09:57:40.770Z)
Latitude
-2.19244°
Longitude
167.09625°
Altitude
981.046 km
Speed
7.324 km/s
True Right ascension
15h 00m 35s
True Declination
-2° 10' 47"
Sunlit
Object was in full shadow at epoch
Visualization orbit readout
Latitude
Unknown
Longitude
Unknown
Altitude
Unknown
Speed
Unknown
Apparent Right ascension
Unknown
Apparent Declination
Unknown
Sunlit
N/A
Visualization observer readout
Local Sidereal Time
10:15:20
Azimuth
Unknown
Elevation
Unknown
Doppler factor
Unknown
Orbital elements
Apogee altitude
1,061.699 km
Perigee altitude
744.319 km
Semi-major axis
7,281.146 km
Eccentricity
0.02179
Inclination
74.0872°
RAAN
44.524°
Arg. of periapsis
63.7494°
True anomaly
118.40418°
Mean anomaly
116.1903°
Eccentric anomaly
117.29995°
Mean motion
3.49336 °/min
Orbital period
103.05 mins
BSTAR
0.00057436

Documentation

Showing up to 5 results
|